Location: Carrigahorig
(53.0625°N, 8.1439°W)
Time: 00:38:17
(UTC+00:00)

RESURS DK-1 - Pass Details

Date: 15 May 2026
Orbit: 522 x 531 km, 69.9° (Epoch: 9 June)

Event Time Altitude Azimuth Distance (km) Brightness Sun altitude
Rises 22:11:48 0° 330° (NNW) 2,683 8.0 -12.0°
Reaches altitude 10° 22:14:09 10° 340° (NNW) 1,790 6.3 -12.2°
Maximum altitude 22:17:47 32° 45° (NE) 925 3.6 -12.5°
Enters shadow 22:20:55 13° 107° (ESE) 1,618 4.3 -12.8°
